Weather History for Ft Lauderdale, FL

Change the Weather History Date:

Tuesday, December 11, 2012

  Actual Average Record
Temperature  
Mean Temperature 79 °F 72 °F  
Max Temperature 86 °F 79 °F 87 °F (1997)
Min Temperature 71 °F 65 °F 30 °F (1962)
Degree Days  
Heating Degree Days 0 1  
Month to date heating degree days 0 6  
Since 1 July heating degree days 2 8  
Cooling Degree Days 14 8  
Month to date cooling degree days 126 89  
Year to date cooling degree days 4481 4602  
Growing Degree Days 28 (Base 50)    
Moisture  
Dew Point 73 °F    
Average Humidity 82    
Maximum Humidity 93    
Minimum Humidity 70    
Precipitation  
Precipitation 0.36 in 0.09 in 2.41 in (1978)
Month to date precipitation 0.45 0.94  
Year to date precipitation 60.57 60.66  
Snow  
Snow 0.00 in - - ()
Month to date snowfall 0.0  
Since 1 July snowfall 0.0  
Snow Depth 0.00 in    
Sea Level Pressure  
Sea Level Pressure 29.99 in    
Wind  
Wind Speed 7 mph (South)    
Max Wind Speed 23 mph    
Max Gust Speed 35 mph    
Visibility 9 miles    
Events Fog , Rain , Thunderstorm    
T = Trace of Precipitation, MM = Missing Value Source: NWS Daily Summary

Daily Weather History Graph

Daily Weather History Graph

Search for Another Location

Airport:

Trip Planner

Search our weather history database for the weather conditions in past years. The results will help you decide how hot, cold, wet, or windy it might be!

Date:

Astronomy

Dec. 11, 2012 Rise Set
Actual Time 6:58 AM EST 5:30 PM EST
Civil Twilight 6:32 AM EST 5:55 PM EST
Nautical Twilight 6:04 AM EST 6:24 PM EST
Astronomical Twilight 5:35 AM EST 6:52 PM EST
Moon 4:56 AM EST (12/11) 4:03 PM EST (12/11)
Length of Visible Light 11h 22m
Length of Day
10h 32m
Waning Crescent, 4% of the Moon is Illuminated
Dec 11
Waning Crescent
Dec 13
New
Dec 20
First Quarter
Dec 28
Full
Jan 4
Last Quarter

Hourly Weather History & Observations

Time (EST) Temp. Heat Index Dew Point Humidity Pressure Visibility Wind Dir Wind Speed Gust Speed Precip Events Conditions
12:16 AM 78.8 °F - 73.4 °F 83% 29.97 in 10.0 mi South 6.9 mph - N/A   Mostly Cloudy
12:53 AM 78.1 °F - 73.0 °F 84% 29.96 in 10.0 mi South 6.9 mph - N/A   Mostly Cloudy
1:46 AM 78.8 °F - 73.4 °F 83% 29.95 in 10.0 mi South 8.1 mph - N/A   Scattered Clouds
1:53 AM 77.0 °F - 73.0 °F 88% 29.94 in 10.0 mi SSE 10.4 mph - N/A   Scattered Clouds
2:53 AM 77.0 °F - 73.0 °F 88% 29.95 in 10.0 mi South 6.9 mph - N/A   Mostly Cloudy
3:16 AM 77.0 °F - 73.4 °F 89% 29.94 in 10.0 mi South 6.9 mph - 0.00 in Rain , Thunderstorm Light Thunderstorms and Rain
3:37 AM 73.4 °F - 69.8 °F 88% 29.97 in 0.2 mi West 15.0 mph 34.5 mph 0.13 in Fog , Rain , Thunderstorm Heavy Thunderstorms and Rain
3:40 AM 71.6 °F - 69.8 °F 94% 29.97 in 1.0 mi WSW 9.2 mph 34.5 mph 0.15 in Rain , Thunderstorm Heavy Thunderstorms and Rain
3:43 AM 71.6 °F - 69.8 °F 94% 29.97 in 3.0 mi WSW 6.9 mph 28.8 mph 0.18 in Rain , Thunderstorm Thunderstorms and Rain
3:53 AM 72.0 °F - 70.0 °F 93% 29.97 in 1.8 mi WSW 8.1 mph - 0.25 in Rain , Thunderstorm Heavy Thunderstorms and Rain
3:55 AM 71.6 °F - 69.8 °F 94% 29.97 in 4.0 mi WSW 8.1 mph - 0.00 in Rain , Thunderstorm Thunderstorms and Rain
4:12 AM 71.6 °F - 69.8 °F 94% 29.96 in 6.0 mi West 8.1 mph - 0.05 in Rain Rain
4:53 AM 71.1 °F - 69.1 °F 93% 29.94 in 10.0 mi Calm Calm - 0.11 in   Partly Cloudy
5:53 AM 71.1 °F - 69.1 °F 93% 29.97 in 10.0 mi South 3.5 mph - N/A   Partly Cloudy
6:53 AM 72.0 °F - 70.0 °F 93% 29.96 in 10.0 mi South 3.5 mph - N/A   Partly Cloudy
7:53 AM 73.9 °F - 72.0 °F 93% 29.99 in 10.0 mi SW 4.6 mph - N/A   Partly Cloudy
8:53 AM 77.0 °F - 73.9 °F 90% 30.00 in 10.0 mi SSW 3.5 mph - N/A   Partly Cloudy
9:03 AM 78.8 °F - 75.2 °F 89% 30.00 in 10.0 mi South 6.9 mph - N/A   Partly Cloudy
9:53 AM 80.1 °F 84.5 °F 73.9 °F 81% 30.01 in 10.0 mi South 8.1 mph - N/A   Scattered Clouds
10:53 AM 84.0 °F 91.9 °F 75.0 °F 74% 30.02 in 10.0 mi SSW 11.5 mph - N/A   Scattered Clouds
11:53 AM 84.9 °F 93.3 °F 75.0 °F 72% 30.01 in 10.0 mi South 8.1 mph - N/A   Mostly Cloudy
12:53 PM 84.0 °F 91.2 °F 73.9 °F 72% 29.97 in 10.0 mi South 8.1 mph - N/A   Mostly Cloudy
1:53 PM 82.0 °F 88.6 °F 75.0 °F 79% 29.95 in 10.0 mi South 10.4 mph - N/A   Scattered Clouds
2:53 PM 82.0 °F 87.9 °F 73.9 °F 76% 29.95 in 10.0 mi SSE 12.7 mph - N/A   Partly Cloudy
3:53 PM 82.0 °F 87.9 °F 73.9 °F 76% 29.95 in 10.0 mi South 11.5 mph - N/A   Scattered Clouds
4:53 PM 80.1 °F 84.5 °F 73.9 °F 81% 29.95 in 10.0 mi SSE 10.4 mph - N/A   Partly Cloudy
5:53 PM 79.0 °F - 73.9 °F 84% 29.96 in 10.0 mi South 6.9 mph - N/A   Scattered Clouds
6:50 PM 78.8 °F - 75.2 °F 89% 29.97 in 10.0 mi South 8.1 mph - N/A   Mostly Cloudy
6:53 PM 79.0 °F - 75.0 °F 88% 29.97 in 10.0 mi South 8.1 mph - N/A   Mostly Cloudy
7:18 PM 78.8 °F - 73.4 °F 83% 29.98 in 10.0 mi South 6.9 mph - N/A   Overcast
7:47 PM 78.8 °F - 73.4 °F 83% 29.99 in 10.0 mi South 6.9 mph - N/A   Scattered Clouds
7:53 PM 78.8 °F - 73.4 °F 83% 29.99 in 10.0 mi South 6.9 mph - N/A   Partly Cloudy
8:53 PM 78.8 °F - 73.4 °F 83% 30.02 in 10.0 mi South 3.5 mph - N/A   Scattered Clouds
9:53 PM 78.1 °F - 73.9 °F 87% 30.05 in 10.0 mi SSW 3.5 mph - N/A   Mostly Cloudy
10:04 PM 78.8 °F - 73.4 °F 83% 30.05 in 10.0 mi SW 3.5 mph - N/A   Mostly Cloudy
10:24 PM 77.0 °F - 73.4 °F 89% 30.05 in 10.0 mi Calm Calm - N/A   Scattered Clouds
10:53 PM 77.0 °F - 73.9 °F 90% 30.05 in 10.0 mi Calm Calm - N/A   Scattered Clouds
11:05 PM 77.0 °F - 73.4 °F 89% 30.06 in 10.0 mi SE 4.6 mph - N/A   Mostly Cloudy
11:34 PM 77.0 °F - 73.4 °F 89% 30.06 in 10.0 mi South 4.6 mph - N/A   Mostly Cloudy
11:47 PM 77.0 °F - 73.4 °F 89% 30.05 in 10.0 mi South 4.6 mph - N/A   Scattered Clouds
11:53 PM 77.0 °F - 73.0 °F 88% 30.06 in 10.0 mi South 5.8 mph - N/A   Scattered Clouds